contact:dominique.lefevre@mio.osupytheas.fr, maurice.libes@osupytheas.fr, didier.mallarino@osupytheas.fr
Project:EMSO http://www.emso-fr.org/EMSO-France
Depth: 2436.0 m
Title:EMSO Ligure Ouest : Data MII capteur CSTAR
DateTime,Latitude,Longitude,Instrument_Serial,Reference_Counts,Signal_Counts,Corrected_Signal_raw_counts,Calculated_Beam_c_inverse_meters,Internal_thermistor_counts
DateTime,Latitude,Longitude,Instrument_Serial,Reference_Counts,Signal_Counts,Corrected_Signal_raw_counts,Calculated_Beam_c_inverse_meters,Internal_thermistor_counts
2022-01-28T00:01:05,42.805,6.029,CST-1368DR,4947,6240,13473,0.590,551
2022-01-28T00:04:07,42.805,6.029,CST-1368DR,4947,6239,13472,0.591,551
2022-01-28T00:07:08,42.805,6.029,CST-1368DR,4947,6239,13472,0.591,551
2022-01-28T00:10:10,42.805,6.029,CST-1368DR,4947,6239,13472,0.591,551
2022-01-28T00:13:12,42.805,6.029,CST-1368DR,4947,6239,13471,0.591,551
2022-01-28T00:16:13,42.805,6.029,CST-1368DR,4947,6240,13474,0.590,551
2022-01-28T00:19:15,42.805,6.029,CST-1368DR,4947,6239,13472,0.591,551
2022-01-28T00:22:16,42.805,6.029,CST-1368DR,4947,6240,13475,0.590,551
2022-01-28T00:25:18,42.805,6.029,CST-1368DR,4947,6240,13474,0.590,551
2022-01-28T00:28:19,42.805,6.029,CST-1368DR,4947,6239,13473,0.590,551
2022-01-28T00:31:21,42.805,6.029,CST-1368DR,4947,6240,13474,0.590,551
2022-01-28T00:34:23,42.805,6.029,CST-1368DR,4947,6240,13473,0.590,551
2022-01-28T00:37:24,42.805,6.029,CST-1368DR,4947,6240,13474,0.590,551
2022-01-28T00:40:26,42.805,6.029,CST-1368DR,4947,6239,13472,0.591,551
2022-01-28T00:43:27,42.805,6.029,CST-1368DR,4947,6239,13473,0.590,551
2022-01-28T00:46:29,42.805,6.029,CST-1368DR,4946,6238,13473,0.590,551
2022-01-28T00:49:30,42.805,6.029,CST-1368DR,4946,6239,13474,0.590,551
2022-01-28T00:52:32,42.805,6.029,CST-1368DR,4946,6239,13474,0.590,551
2022-01-28T00:55:34,42.805,6.029,CST-1368DR,4946,6239,13475,0.590,551
2022-01-28T00:58:35,42.805,6.029,CST-1368DR,4946,6239,13474,0.590,551
2022-01-28T01:01:37,42.805,6.029,CST-1368DR,4947,6240,13473,0.590,551
2022-01-28T01:04:38,42.805,6.029,CST-1368DR,4946,6231,13457,0.595,551
2022-01-28T01:07:40,42.805,6.029,CST-1368DR,4946,6238,13472,0.591,551
2022-01-28T01:10:42,42.805,6.029,CST-1368DR,4946,6238,13472,0.591,551
2022-01-28T01:13:43,42.805,6.029,CST-1368DR,4946,6239,13474,0.590,551
2022-01-28T01:16:45,42.805,6.029,CST-1368DR,4946,6239,13474,0.590,551
2022-01-28T01:19:46,42.805,6.029,CST-1368DR,4946,6239,13474,0.590,551
2022-01-28T01:22:48,42.805,6.029,CST-1368DR,4946,6238,13472,0.591,551
2022-01-28T01:25:49,42.805,6.029,CST-1368DR,4946,6237,13470,0.591,551
2022-01-28T01:28:51,42.805,6.029,CST-1368DR,4946,6239,13475,0.590,551
2022-01-28T01:31:53,42.805,6.029,CST-1368DR,4946,6238,13473,0.590,551
2022-01-28T01:34:54,42.805,6.029,CST-1368DR,4946,6237,13471,0.591,551
2022-01-28T01:37:56,42.805,6.029,CST-1368DR,4946,6237,13471,0.591,551
2022-01-28T01:40:57,42.805,6.029,CST-1368DR,4946,6239,13475,0.590,551
2022-01-28T01:43:59,42.805,6.029,CST-1368DR,4946,6240,13478,0.589,551
2022-01-28T01:47:00,42.805,6.029,CST-1368DR,4946,6240,13476,0.590,551
2022-01-28T01:50:02,42.805,6.029,CST-1368DR,4946,6241,13479,0.589,551
2022-01-28T01:53:04,42.805,6.029,CST-1368DR,4946,6240,13477,0.589,551
2022-01-28T01:56:05,42.805,6.029,CST-1368DR,4946,6238,13472,0.591,551
2022-01-28T01:59:07,42.805,6.029,CST-1368DR,4946,6240,13476,0.590,551
2022-01-28T02:02:08,42.805,6.029,CST-1368DR,4946,6240,13477,0.589,551
2022-01-28T02:05:10,42.805,6.029,CST-1368DR,4946,6240,13477,0.589,551
2022-01-28T02:08:12,42.805,6.029,CST-1368DR,4946,6240,13478,0.589,551
2022-01-28T02:11:13,42.805,6.029,CST-1368DR,4946,6239,13474,0.590,550
2022-01-28T02:14:15,42.805,6.029,CST-1368DR,4946,6241,13478,0.589,551
2022-01-28T02:17:16,42.805,6.029,CST-1368DR,4946,6240,13477,0.589,551
2022-01-28T02:20:18,42.805,6.029,CST-1368DR,4946,6238,13473,0.590,551
2022-01-28T02:23:19,42.805,6.029,CST-1368DR,4946,6239,13475,0.590,551
2022-01-28T02:26:21,42.805,6.029,CST-1368DR,4946,6238,13473,0.590,551
2022-01-28T02:29:23,42.805,6.029,CST-1368DR,4946,6239,13475,0.590,551
2022-01-28T02:32:24,42.805,6.029,CST-1368DR,4946,6238,13473,0.590,551
2022-01-28T02:35:26,42.805,6.029,CST-1368DR,4946,6239,13475,0.590,551
2022-01-28T02:38:27,42.805,6.029,CST-1368DR,4946,6239,13474,0.590,551
2022-01-28T02:41:29,42.805,6.029,CST-1368DR,4946,6239,13475,0.590,550
2022-01-28T02:44:31,42.805,6.029,CST-1368DR,4946,6239,13474,0.590,551
2022-01-28T02:47:32,42.805,6.029,CST-1368DR,4946,6239,13474,0.590,551
2022-01-28T02:50:34,42.805,6.029,CST-1368DR,4946,6240,13476,0.590,551
2022-01-28T02:53:35,42.805,6.029,CST-1368DR,4946,6240,13476,0.590,551
2022-01-28T02:56:37,42.805,6.029,CST-1368DR,4946,6238,13472,0.591,551
2022-01-28T02:59:38,42.805,6.029,CST-1368DR,4946,6238,13473,0.590,551
2022-01-28T03:02:40,42.805,6.029,CST-1368DR,4946,6239,13475,0.590,551
2022-01-28T03:05:42,42.805,6.029,CST-1368DR,4946,6239,13474,0.590,551
2022-01-28T03:08:43,42.805,6.029,CST-1368DR,4946,6237,13471,0.591,551
2022-01-28T03:11:45,42.805,6.029,CST-1368DR,4946,6238,13472,0.591,551
2022-01-28T03:14:46,42.805,6.029,CST-1368DR,4946,6238,13473,0.590,551
2022-01-28T03:17:48,42.805,6.029,CST-1368DR,4946,6237,13471,0.591,551
2022-01-28T03:20:49,42.805,6.029,CST-1368DR,4945,6239,13477,0.589,551
2022-01-28T03:23:51,42.805,6.029,CST-1368DR,4945,6236,13470,0.591,551
2022-01-28T03:26:53,42.805,6.029,CST-1368DR,4945,6238,13476,0.590,551
2022-01-28T03:29:54,42.805,6.029,CST-1368DR,4946,6237,13471,0.591,551
2022-01-28T03:32:56,42.805,6.029,CST-1368DR,4946,6239,13474,0.590,551
2022-01-28T03:35:57,42.805,6.029,CST-1368DR,4946,6238,13473,0.590,551
2022-01-28T03:38:59,42.805,6.029,CST-1368DR,4946,6239,13474,0.590,551
2022-01-28T03:42:01,42.805,6.029,CST-1368DR,4946,6238,13473,0.590,551
2022-01-28T03:45:02,42.805,6.029,CST-1368DR,4946,6237,13470,0.591,551
2022-01-28T03:48:04,42.805,6.029,CST-1368DR,4946,6236,13467,0.592,551
2022-01-28T03:51:05,42.805,6.029,CST-1368DR,4946,6234,13464,0.593,550
2022-01-28T03:54:07,42.805,6.029,CST-1368DR,4946,6231,13456,0.595,551
2022-01-28T03:57:08,42.805,6.029,CST-1368DR,4946,6239,13474,0.590,551
2022-01-28T04:00:10,42.805,6.029,CST-1368DR,4946,6235,13467,0.592,551
2022-01-28T04:03:12,42.805,6.029,CST-1368DR,4946,6232,13460,0.594,551
2022-01-28T04:06:13,42.805,6.029,CST-1368DR,4946,6232,13460,0.594,551
2022-01-28T04:09:15,42.805,6.029,CST-1368DR,4946,6234,13465,0.593,551
2022-01-28T04:12:16,42.805,6.029,CST-1368DR,4946,6239,13474,0.590,551
2022-01-28T04:15:18,42.805,6.029,CST-1368DR,4946,6238,13473,0.590,551
2022-01-28T04:18:20,42.805,6.029,CST-1368DR,4946,6237,13470,0.591,551
2022-01-28T04:21:21,42.805,6.029,CST-1368DR,4946,6239,13474,0.590,551
2022-01-28T04:24:23,42.805,6.029,CST-1368DR,4946,6239,13474,0.590,551
2022-01-28T04:27:24,42.805,6.029,CST-1368DR,4946,6239,13474,0.590,551
2022-01-28T04:30:26,42.805,6.029,CST-1368DR,4946,6238,13473,0.590,551
2022-01-28T04:33:27,42.805,6.029,CST-1368DR,4946,6237,13471,0.591,551
2022-01-28T04:36:29,42.805,6.029,CST-1368DR,4946,6238,13472,0.591,551
2022-01-28T04:39:31,42.805,6.029,CST-1368DR,4946,6239,13474,0.590,551
2022-01-28T04:42:32,42.805,6.029,CST-1368DR,4946,6238,13472,0.591,551
2022-01-28T04:45:34,42.805,6.029,CST-1368DR,4946,6238,13472,0.591,551
2022-01-28T04:48:35,42.805,6.029,CST-1368DR,4946,6239,13474,0.590,551
2022-01-28T04:51:37,42.805,6.029,CST-1368DR,4946,6237,13470,0.591,551
2022-01-28T04:54:38,42.805,6.029,CST-1368DR,4946,6238,13472,0.591,551
2022-01-28T04:57:40,42.805,6.029,CST-1368DR,4946,6238,13472,0.591,551
2022-01-28T05:00:42,42.805,6.029,CST-1368DR,4946,6239,13475,0.590,551
2022-01-28T05:03:43,42.805,6.029,CST-1368DR,4946,6238,13473,0.590,551
2022-01-28T05:06:45,42.805,6.029,CST-1368DR,4946,6238,13473,0.590,551
2022-01-28T05:09:46,42.805,6.029,CST-1368DR,4946,6240,13476,0.590,551
2022-01-28T05:12:48,42.805,6.029,CST-1368DR,4946,6236,13468,0.592,551
2022-01-28T05:15:50,42.805,6.029,CST-1368DR,4946,6238,13472,0.591,551
2022-01-28T05:18:51,42.805,6.029,CST-1368DR,4946,6237,13471,0.591,551
2022-01-28T05:21:53,42.805,6.029,CST-1368DR,4946,6239,13474,0.590,551
2022-01-28T05:24:54,42.805,6.029,CST-1368DR,4946,6235,13467,0.592,551
2022-01-28T05:27:56,42.805,6.029,CST-1368DR,4946,6238,13473,0.590,551
2022-01-28T05:30:57,42.805,6.029,CST-1368DR,4946,6239,13475,0.590,551
2022-01-28T05:33:59,42.805,6.029,CST-1368DR,4946,6239,13475,0.590,551
2022-01-28T05:37:01,42.805,6.029,CST-1368DR,4946,6239,13475,0.590,551
2022-01-28T05:40:02,42.805,6.029,CST-1368DR,4946,6238,13473,0.590,551
2022-01-28T05:43:04,42.805,6.029,CST-1368DR,4946,6239,13474,0.590,551
2022-01-28T05:46:05,42.805,6.029,CST-1368DR,4946,6238,13473,0.590,551
2022-01-28T05:49:07,42.805,6.029,CST-1368DR,4946,6235,13467,0.592,551
2022-01-28T05:52:09,42.805,6.029,CST-1368DR,4946,6238,13473,0.590,551
2022-01-28T05:55:10,42.805,6.029,CST-1368DR,4946,6238,13473,0.590,551
2022-01-28T05:58:12,42.805,6.029,CST-1368DR,4946,6234,13463,0.593,551
2022-01-28T06:01:13,42.805,6.029,CST-1368DR,4946,6239,13474,0.590,551
2022-01-28T06:04:15,42.805,6.029,CST-1368DR,4946,6238,13472,0.591,551
2022-01-28T06:07:16,42.805,6.029,CST-1368DR,4946,6229,13452,0.597,551
2022-01-28T06:10:18,42.805,6.029,CST-1368DR,4946,6233,13461,0.594,551
2022-01-28T06:13:20,42.805,6.029,CST-1368DR,4946,6235,13467,0.592,551
2022-01-28T06:16:21,42.805,6.029,CST-1368DR,4946,6237,13470,0.591,551
2022-01-28T06:19:23,42.805,6.029,CST-1368DR,4946,6237,13471,0.591,551
2022-01-28T06:22:24,42.805,6.029,CST-1368DR,4946,6237,13469,0.592,551
2022-01-28T06:25:26,42.805,6.029,CST-1368DR,4946,6238,13472,0.591,551
2022-01-28T06:28:27,42.805,6.029,CST-1368DR,4946,6238,13472,0.591,551
2022-01-28T06:31:29,42.805,6.029,CST-1368DR,4946,6238,13472,0.591,551
2022-01-28T06:34:31,42.805,6.029,CST-1368DR,4946,6239,13474,0.590,551
2022-01-28T06:37:32,42.805,6.029,CST-1368DR,4946,6239,13474,0.590,551
2022-01-28T06:40:34,42.805,6.029,CST-1368DR,4946,6238,13473,0.590,551
2022-01-28T06:43:35,42.805,6.029,CST-1368DR,4946,6239,13475,0.590,551
2022-01-28T06:46:37,42.805,6.029,CST-1368DR,4946,6239,13475,0.590,551
2022-01-28T06:49:39,42.805,6.029,CST-1368DR,4946,6237,13469,0.592,551
2022-01-28T06:52:40,42.805,6.029,CST-1368DR,4946,6238,13472,0.591,551
2022-01-28T06:55:42,42.805,6.029,CST-1368DR,4946,6239,13474,0.590,551
2022-01-28T06:58:43,42.805,6.029,CST-1368DR,4946,6238,13473,0.590,551
2022-01-28T07:01:45,42.805,6.029,CST-1368DR,4946,6233,13461,0.594,551
2022-01-28T07:04:46,42.805,6.029,CST-1368DR,4946,6237,13471,0.591,551
2022-01-28T07:07:48,42.805,6.029,CST-1368DR,4946,6238,13473,0.590,551
2022-01-28T07:10:50,42.805,6.029,CST-1368DR,4946,6238,13473,0.590,551
2022-01-28T07:13:51,42.805,6.029,CST-1368DR,4946,6239,13474,0.590,551
2022-01-28T07:16:53,42.805,6.029,CST-1368DR,4946,6237,13471,0.591,551
2022-01-28T07:19:54,42.805,6.029,CST-1368DR,4946,6238,13472,0.591,551
2022-01-28T07:22:56,42.805,6.029,CST-1368DR,4946,6239,13474,0.590,551
2022-01-28T07:25:58,42.805,6.029,CST-1368DR,4946,6239,13474,0.590,551
2022-01-28T07:28:59,42.805,6.029,CST-1368DR,4946,6238,13472,0.591,551
2022-01-28T07:32:01,42.805,6.029,CST-1368DR,4946,6238,13473,0.590,551
2022-01-28T07:35:02,42.805,6.029,CST-1368DR,4946,6237,13469,0.592,551
2022-01-28T07:38:04,42.805,6.029,CST-1368DR,4946,6238,13473,0.590,551
2022-01-28T07:41:05,42.805,6.029,CST-1368DR,4946,6238,13473,0.590,551
2022-01-28T07:44:07,42.805,6.029,CST-1368DR,4946,6238,13472,0.591,551
2022-01-28T07:47:09,42.805,6.029,CST-1368DR,4946,6238,13472,0.591,551
2022-01-28T07:50:10,42.805,6.029,CST-1368DR,4946,6237,13471,0.591,551
2022-01-28T07:53:12,42.805,6.029,CST-1368DR,4946,6238,13472,0.591,551
2022-01-28T07:56:13,42.805,6.029,CST-1368DR,4946,6237,13471,0.591,551
2022-01-28T07:59:15,42.805,6.029,CST-1368DR,4946,6237,13471,0.591,551
2022-01-28T08:02:17,42.805,6.029,CST-1368DR,4946,6229,13453,0.596,551
2022-01-28T08:05:18,42.805,6.029,CST-1368DR,4946,6236,13468,0.592,551
2022-01-28T08:08:20,42.805,6.029,CST-1368DR,4946,6238,13472,0.591,551
2022-01-28T08:11:21,42.805,6.029,CST-1368DR,4946,6236,13468,0.592,551
2022-01-28T08:14:23,42.805,6.029,CST-1368DR,4946,6237,13469,0.592,551
2022-01-28T08:17:24,42.805,6.029,CST-1368DR,4946,6237,13471,0.591,551
2022-01-28T08:20:26,42.805,6.029,CST-1368DR,4946,6238,13472,0.591,551
2022-01-28T08:23:28,42.805,6.029,CST-1368DR,4946,6238,13472,0.591,551
2022-01-28T08:26:29,42.805,6.029,CST-1368DR,4946,6235,13467,0.592,551
2022-01-28T08:29:31,42.805,6.029,CST-1368DR,4946,6237,13471,0.591,551
2022-01-28T08:32:32,42.805,6.029,CST-1368DR,4946,6239,13474,0.590,551
2022-01-28T08:35:34,42.805,6.029,CST-1368DR,4946,6237,13471,0.591,550
2022-01-28T08:38:35,42.805,6.029,CST-1368DR,4946,6238,13472,0.591,551
2022-01-28T08:41:37,42.805,6.029,CST-1368DR,4946,6238,13473,0.590,551
2022-01-28T08:44:39,42.805,6.029,CST-1368DR,4946,6238,13473,0.590,551
2022-01-28T08:47:40,42.805,6.029,CST-1368DR,4946,6237,13471,0.591,551
2022-01-28T08:50:42,42.805,6.029,CST-1368DR,4946,6238,13473,0.590,551
2022-01-28T08:53:43,42.805,6.029,CST-1368DR,4946,6238,13472,0.591,551
2022-01-28T08:56:45,42.805,6.029,CST-1368DR,4946,6238,13473,0.590,551
2022-01-28T08:59:47,42.805,6.029,CST-1368DR,4946,6238,13473,0.590,551
2022-01-28T09:02:48,42.805,6.029,CST-1368DR,4946,6238,13473,0.590,551
2022-01-28T09:05:50,42.805,6.029,CST-1368DR,4946,6238,13472,0.591,551
2022-01-28T09:08:51,42.805,6.029,CST-1368DR,4946,6239,13474,0.590,551
2022-01-28T09:11:53,42.805,6.029,CST-1368DR,4946,6239,13475,0.590,551
2022-01-28T09:14:54,42.805,6.029,CST-1368DR,4946,6239,13474,0.590,551
2022-01-28T09:17:56,42.805,6.029,CST-1368DR,4946,6238,13472,0.591,551
2022-01-28T09:20:58,42.805,6.029,CST-1368DR,4946,6238,13472,0.591,551
2022-01-28T09:23:59,42.805,6.029,CST-1368DR,4946,6239,13474,0.590,551
2022-01-28T09:27:01,42.805,6.029,CST-1368DR,4946,6239,13474,0.590,551
2022-01-28T09:30:02,42.805,6.029,CST-1368DR,4946,6239,13474,0.590,551
2022-01-28T09:33:04,42.805,6.029,CST-1368DR,4946,6239,13474,0.590,551
2022-01-28T09:36:06,42.805,6.029,CST-1368DR,4946,6239,13474,0.590,551
2022-01-28T09:39:07,42.805,6.029,CST-1368DR,4946,6239,13474,0.590,551
2022-01-28T09:42:09,42.805,6.029,CST-1368DR,4946,6238,13473,0.590,551
2022-01-28T09:45:10,42.805,6.029,CST-1368DR,4946,6238,13472,0.591,551
2022-01-28T09:48:12,42.805,6.029,CST-1368DR,4946,6239,13474,0.590,551
2022-01-28T09:51:13,42.805,6.029,CST-1368DR,4946,6239,13474,0.590,551
2022-01-28T09:54:15,42.805,6.029,CST-1368DR,4946,6239,13474,0.590,551
2022-01-28T09:57:17,42.805,6.029,CST-1368DR,4946,6238,13473,0.590,551
2022-01-28T10:00:18,42.805,6.029,CST-1368DR,4946,6238,13473,0.590,551
2022-01-28T10:03:20,42.805,6.029,CST-1368DR,4946,6236,13468,0.592,551
2022-01-28T10:06:21,42.805,6.029,CST-1368DR,4946,6239,13474,0.590,551
2022-01-28T10:09:23,42.805,6.029,CST-1368DR,4946,6237,13471,0.591,551
2022-01-28T10:12:24,42.805,6.029,CST-1368DR,4946,6237,13471,0.591,551
2022-01-28T10:15:26,42.805,6.029,CST-1368DR,4946,6238,13473,0.590,551
2022-01-28T10:18:28,42.805,6.029,CST-1368DR,4946,6238,13473,0.590,551
2022-01-28T10:21:29,42.805,6.029,CST-1368DR,4946,6238,13473,0.590,551
2022-01-28T10:24:31,42.805,6.029,CST-1368DR,4946,6238,13472,0.591,551
2022-01-28T10:27:32,42.805,6.029,CST-1368DR,4946,6238,13473,0.590,551
2022-01-28T10:30:34,42.805,6.029,CST-1368DR,4946,6238,13473,0.590,551
2022-01-28T10:33:36,42.805,6.029,CST-1368DR,4946,6238,13473,0.590,551
2022-01-28T10:36:37,42.805,6.029,CST-1368DR,4946,6238,13473,0.590,551
2022-01-28T10:39:39,42.805,6.029,CST-1368DR,4946,6238,13473,0.590,551
2022-01-28T10:42:40,42.805,6.029,CST-1368DR,4946,6235,13467,0.592,551
2022-01-28T10:45:42,42.805,6.029,CST-1368DR,4946,6237,13471,0.591,551
2022-01-28T10:48:43,42.805,6.029,CST-1368DR,4946,6235,13466,0.593,551
2022-01-28T10:51:45,42.805,6.029,CST-1368DR,4946,6238,13472,0.591,551
2022-01-28T10:54:47,42.805,6.029,CST-1368DR,4946,6238,13473,0.590,551
2022-01-28T10:57:48,42.805,6.029,CST-1368DR,4946,6238,13473,0.590,551
2022-01-28T11:00:50,42.805,6.029,CST-1368DR,4946,6238,13472,0.591,551
2022-01-28T11:03:51,42.805,6.029,CST-1368DR,4946,6238,13473,0.590,551
2022-01-28T11:06:53,42.805,6.029,CST-1368DR,4946,6237,13469,0.592,551
2022-01-28T11:09:54,42.805,6.029,CST-1368DR,4946,6237,13471,0.591,551
2022-01-28T11:12:56,42.805,6.029,CST-1368DR,4946,6238,13472,0.591,551
2022-01-28T11:15:58,42.805,6.029,CST-1368DR,4946,6237,13469,0.592,551
2022-01-28T11:18:59,42.805,6.029,CST-1368DR,4946,6237,13471,0.591,551
2022-01-28T11:22:01,42.805,6.029,CST-1368DR,4946,6237,13471,0.591,551
2022-01-28T11:25:02,42.805,6.029,CST-1368DR,4946,6237,13471,0.591,551
2022-01-28T11:28:04,42.805,6.029,CST-1368DR,4946,6236,13467,0.592,551
2022-01-28T11:31:06,42.805,6.029,CST-1368DR,4946,6236,13468,0.592,550
2022-01-28T11:34:07,42.805,6.029,CST-1368DR,4946,6226,13446,0.598,551
2022-01-28T11:37:09,42.805,6.029,CST-1368DR,4946,6236,13468,0.592,551
2022-01-28T11:40:10,42.805,6.029,CST-1368DR,4946,6236,13468,0.592,551
2022-01-28T11:43:12,42.805,6.029,CST-1368DR,4946,6236,13468,0.592,551
2022-01-28T11:46:13,42.805,6.029,CST-1368DR,4946,6236,13468,0.592,551
2022-01-28T11:49:15,42.805,6.029,CST-1368DR,4946,6236,13467,0.592,551
2022-01-28T11:52:17,42.805,6.029,CST-1368DR,4946,6237,13469,0.592,551
2022-01-28T11:55:18,42.805,6.029,CST-1368DR,4946,6235,13466,0.593,551
2022-01-28T11:58:20,42.805,6.029,CST-1368DR,4946,6236,13467,0.592,551
2022-01-28T12:01:21,42.805,6.029,CST-1368DR,4946,6236,13468,0.592,551
2022-01-28T12:04:23,42.805,6.029,CST-1368DR,4946,6236,13467,0.592,551
2022-01-28T12:07:25,42.805,6.029,CST-1368DR,4946,6235,13467,0.592,551
2022-01-28T12:10:26,42.805,6.029,CST-1368DR,4945,6236,13470,0.591,551
2022-01-28T12:13:28,42.805,6.029,CST-1368DR,4946,6236,13467,0.592,551
2022-01-28T12:16:29,42.805,6.029,CST-1368DR,4946,6235,13466,0.593,551
2022-01-28T12:19:31,42.805,6.029,CST-1368DR,4946,6235,13466,0.593,550
2022-01-28T12:22:32,42.805,6.029,CST-1368DR,4946,6235,13466,0.593,551
2022-01-28T12:25:34,42.805,6.029,CST-1368DR,4946,6234,13465,0.593,551
2022-01-28T12:28:36,42.805,6.029,CST-1368DR,4946,6236,13468,0.592,551
2022-01-28T12:31:37,42.805,6.029,CST-1368DR,4946,6236,13468,0.592,551
2022-01-28T12:34:39,42.805,6.029,CST-1368DR,4946,6235,13467,0.592,551
2022-01-28T12:37:40,42.805,6.029,CST-1368DR,4946,6236,13468,0.592,551
2022-01-28T12:40:42,42.805,6.029,CST-1368DR,4946,6234,13464,0.593,551
2022-01-28T12:43:43,42.805,6.029,CST-1368DR,4946,6235,13466,0.593,551
2022-01-28T12:46:45,42.805,6.029,CST-1368DR,4946,6235,13466,0.593,551
2022-01-28T12:49:47,42.805,6.029,CST-1368DR,4946,6235,13466,0.593,551
2022-01-28T12:52:48,42.805,6.029,CST-1368DR,4946,6236,13467,0.592,551
2022-01-28T12:55:50,42.805,6.029,CST-1368DR,4946,6236,13468,0.592,551
2022-01-28T12:58:51,42.805,6.029,CST-1368DR,4946,6235,13465,0.593,551
2022-01-28T13:01:53,42.805,6.029,CST-1368DR,4946,6236,13467,0.592,551
2022-01-28T13:04:55,42.805,6.029,CST-1368DR,4946,6235,13466,0.593,551
2022-01-28T13:07:56,42.805,6.029,CST-1368DR,4946,6235,13465,0.593,551
2022-01-28T13:10:58,42.805,6.029,CST-1368DR,4946,6235,13466,0.593,551
2022-01-28T13:13:59,42.805,6.029,CST-1368DR,4946,6235,13467,0.592,551
2022-01-28T13:17:01,42.805,6.029,CST-1368DR,4946,6236,13467,0.592,551
2022-01-28T13:20:02,42.805,6.029,CST-1368DR,4946,6235,13466,0.593,551
2022-01-28T13:23:04,42.805,6.029,CST-1368DR,4946,6234,13465,0.593,551
2022-01-28T13:26:06,42.805,6.029,CST-1368DR,4946,6233,13461,0.594,551
2022-01-28T13:29:07,42.805,6.029,CST-1368DR,4946,6236,13467,0.592,551
2022-01-28T13:32:09,42.805,6.029,CST-1368DR,4946,6235,13466,0.593,551
2022-01-28T13:35:10,42.805,6.029,CST-1368DR,4945,6235,13469,0.592,551
2022-01-28T13:38:12,42.805,6.029,CST-1368DR,4945,6234,13466,0.593,551
2022-01-28T13:41:14,42.805,6.029,CST-1368DR,4946,6234,13465,0.593,551
2022-01-28T13:44:15,42.805,6.029,CST-1368DR,4945,6234,13466,0.593,551
2022-01-28T13:47:17,42.805,6.029,CST-1368DR,4946,6231,13457,0.595,551
2022-01-28T13:50:18,42.805,6.029,CST-1368DR,4945,6233,13463,0.593,551
2022-01-28T13:53:20,42.805,6.029,CST-1368DR,4945,6235,13468,0.592,551
2022-01-28T13:56:21,42.805,6.029,CST-1368DR,4945,6234,13466,0.593,551
2022-01-28T13:59:23,42.805,6.029,CST-1368DR,4945,6235,13468,0.592,551
2022-01-28T14:02:25,42.805,6.029,CST-1368DR,4945,6235,13469,0.592,550
2022-01-28T14:05:26,42.805,6.029,CST-1368DR,4945,6235,13468,0.592,551
2022-01-28T14:08:28,42.805,6.029,CST-1368DR,4945,6235,13469,0.592,551
2022-01-28T14:11:29,42.805,6.029,CST-1368DR,4946,6235,13466,0.593,551
2022-01-28T14:14:31,42.805,6.029,CST-1368DR,4946,6235,13466,0.593,550
2022-01-28T14:17:32,42.805,6.029,CST-1368DR,4946,6234,13463,0.593,551
2022-01-28T14:20:34,42.805,6.029,CST-1368DR,4945,6233,13465,0.593,551
2022-01-28T14:23:36,42.805,6.029,CST-1368DR,4945,6234,13466,0.593,551
2022-01-28T14:26:37,42.805,6.029,CST-1368DR,4945,6235,13468,0.592,551
2022-01-28T14:29:39,42.805,6.029,CST-1368DR,4945,6232,13461,0.594,551
2022-01-28T14:32:40,42.805,6.029,CST-1368DR,4945,6234,13467,0.592,551
2022-01-28T14:35:42,42.805,6.029,CST-1368DR,4945,6233,13465,0.593,551
2022-01-28T14:38:44,42.805,6.029,CST-1368DR,4945,6233,13465,0.593,551
2022-01-28T14:41:45,42.805,6.029,CST-1368DR,4945,6234,13466,0.593,551
2022-01-28T14:44:47,42.805,6.029,CST-1368DR,4945,6234,13467,0.592,551
2022-01-28T14:47:48,42.805,6.029,CST-1368DR,4945,6234,13466,0.593,551
2022-01-28T14:50:50,42.805,6.029,CST-1368DR,4945,6231,13460,0.594,551
2022-01-28T14:53:51,42.805,6.029,CST-1368DR,4945,6234,13466,0.593,551
2022-01-28T14:56:53,42.805,6.029,CST-1368DR,4945,6233,13465,0.593,551
2022-01-28T14:59:55,42.805,6.029,CST-1368DR,4945,6233,13465,0.593,551
2022-01-28T15:02:56,42.805,6.029,CST-1368DR,4945,6234,13466,0.593,551
2022-01-28T15:05:58,42.805,6.029,CST-1368DR,4945,6233,13463,0.593,551
2022-01-28T15:08:59,42.805,6.029,CST-1368DR,4945,6233,13463,0.593,551
2022-01-28T15:12:01,42.805,6.029,CST-1368DR,4945,6232,13463,0.593,551
2022-01-28T15:15:02,42.805,6.029,CST-1368DR,4945,6233,13465,0.593,551
2022-01-28T15:18:04,42.805,6.029,CST-1368DR,4945,6234,13466,0.593,551
2022-01-28T15:21:06,42.805,6.029,CST-1368DR,4945,6233,13464,0.593,551
2022-01-28T15:24:07,42.805,6.029,CST-1368DR,4945,6232,13462,0.594,551
2022-01-28T15:27:09,42.805,6.029,CST-1368DR,4945,6234,13466,0.593,551
2022-01-28T15:30:10,42.805,6.029,CST-1368DR,4945,6233,13465,0.593,551
2022-01-28T15:33:12,42.805,6.029,CST-1368DR,4945,6233,13465,0.593,551
2022-01-28T15:36:14,42.805,6.029,CST-1368DR,4945,6234,13467,0.592,551
2022-01-28T15:39:15,42.805,6.029,CST-1368DR,4945,6233,13463,0.593,551
2022-01-28T15:42:17,42.805,6.029,CST-1368DR,4945,6234,13466,0.593,551
2022-01-28T15:45:18,42.805,6.029,CST-1368DR,4945,6234,13466,0.593,551
2022-01-28T15:48:20,42.805,6.029,CST-1368DR,4945,6233,13463,0.593,551
2022-01-28T15:51:21,42.805,6.029,CST-1368DR,4945,6233,13463,0.593,551
2022-01-28T15:54:23,42.805,6.029,CST-1368DR,4945,6234,13466,0.593,551
2022-01-28T15:57:25,42.805,6.029,CST-1368DR,4945,6234,13467,0.592,551
2022-01-28T16:00:26,42.805,6.029,CST-1368DR,4945,6232,13462,0.594,551
2022-01-28T16:03:28,42.805,6.029,CST-1368DR,4945,6234,13466,0.593,551
2022-01-28T16:06:29,42.805,6.029,CST-1368DR,4945,6233,13464,0.593,551
2022-01-28T16:09:31,42.805,6.029,CST-1368DR,4945,6234,13466,0.593,551
2022-01-28T16:12:32,42.805,6.029,CST-1368DR,4945,6232,13461,0.594,551
2022-01-28T16:15:34,42.805,6.029,CST-1368DR,4945,6234,13466,0.593,551
2022-01-28T16:18:36,42.805,6.029,CST-1368DR,4945,6233,13464,0.593,550
2022-01-28T16:21:37,42.805,6.029,CST-1368DR,4945,6234,13466,0.593,551
2022-01-28T16:24:39,42.805,6.029,CST-1368DR,4945,6233,13464,0.593,551
2022-01-28T16:27:40,42.805,6.029,CST-1368DR,4945,6233,13464,0.593,551
2022-01-28T16:30:42,42.805,6.029,CST-1368DR,4945,6234,13466,0.593,551
2022-01-28T16:33:44,42.805,6.029,CST-1368DR,4945,6233,13465,0.593,551
2022-01-28T16:36:45,42.805,6.029,CST-1368DR,4945,6234,13466,0.593,551
2022-01-28T16:39:47,42.805,6.029,CST-1368DR,4945,6234,13467,0.592,551
2022-01-28T16:42:48,42.805,6.029,CST-1368DR,4945,6229,13456,0.595,551
2022-01-28T16:45:50,42.805,6.029,CST-1368DR,4945,6232,13461,0.594,551
2022-01-28T16:48:51,42.805,6.029,CST-1368DR,4945,6233,13464,0.593,551
2022-01-28T16:51:53,42.805,6.029,CST-1368DR,4945,6235,13468,0.592,551